Simultaneous Nadir Overpasses (SNOs) Predictions

Prediction of SNOs between NPP and TERRA Satellite Orbit:

Table of predicted SNOs for the next 14.0 days since TLE Epoch: 3/29/2015
Index Date (NPP) Time (NPP) Lat,Lon (NPP) SZA (NPP ) Date (TERRA) Time (TERRA) Lat,Lon (TERRA) SZA (TERRA ) Distance(km) Time Diff (sec)
1 03/29/2015 07:22:06 68.97, 68.86 65.58 03/29/2015 07:22:48 68.96, 68.79 65.57 3.01 42
2 03/29/2015 08:12:48 -68.88,-123.70 114.53 03/29/2015 08:12:17 -68.90,-123.65 114.51 2.72 31
3 03/31/2015 22:48:30 -69.96, 15.91 114.44 03/31/2015 22:49:37 -69.80, 18.15 114.63 87.12 67
4 03/31/2015 23:38:57 68.94,-175.33 64.51 03/31/2015 23:39:18 68.93,-175.37 64.49 2.59 21
5 04/01/2015 00:29:38 -68.80, -7.82 115.65 04/01/2015 00:28:48 -68.81, -7.88 115.64 2.99 50
6 04/03/2015 15:05:07 -69.20, 132.79 116.25 04/03/2015 15:06:18 -69.14, 133.14 116.32 15.24 71
7 04/03/2015 15:55:48 68.93, -59.53 63.47 04/03/2015 15:55:47 68.92, -59.50 63.46 1.76 1
8 04/03/2015 16:46:29 -68.78, 107.98 116.70 04/03/2015 16:45:18 -68.76, 107.93 116.72 3.38 71
9 04/06/2015 07:21:53 -68.97,-111.13 117.50 04/06/2015 07:22:48 -69.00,-111.16 117.48 3.03 55
10 04/06/2015 08:12:37 68.87, 56.32 62.38 04/06/2015 08:12:15 68.89, 56.35 62.40 2.18 22
11 04/06/2015 09:03:06 -68.08,-135.33 118.43 04/06/2015 09:01:57 -68.11,-136.97 118.38 68.13 69
12 04/08/2015 23:38:43 -68.92, 4.72 118.56 04/08/2015 23:39:17 -68.94, 4.66 118.54 3.28 34
13 04/09/2015 00:29:27 68.82, 172.17
